CZ-6A DEB, 60686

Orbit data source: Space-Track

CZ-6A DEB, 60686 is space debris in LEO originally from a launch on Tue, 06 Aug 2024 UTC launched from the Taiyaun Space Center, China (TSC). Debris objects in space refer to the collection of defunct objects orbiting the Earth. Examples of debris include non-operational satellites, rocket bodies, and fragments generated from explosions, collisions, or faulty payload assembly.

Loading next visibility...
Identifier
60686, 2024-140CP
Orbit
LEO
Country
Flag of CNCN / PRC
Related business
Manufacturer
SAST
Mission
Spacecraft
Bus & Motor
Unknown
Mass
Unknown
Launch date (UTC)
2024-08-06 (2 years ago)
Launch vehicle
Unknown
Launch site
Taiyaun Space Center, China (TSC)
Object type
Payload
Rocket body
Debris
Shape & HBR
Unknown shape, 0.3 m
Radar Cross Section
Medium (>0.1 m² and <1 m²)

Expand to show TLE details & history
Last TLE update: 9 hours ago

TLE from 9 hours ago
0 CZ-6A DEB
1 60686U 24140CP  26130.13555951  .00001087  00000-0  32668-3 0  9997
2 60686  88.9800 275.3162 0050429  14.6315 345.6333 14.41312221 91904
Epoch: 2026-05-10T03:15Z
TLE epoch observation values (Epoch: 2026-05-10T03:15:12.341Z)
Latitude
0.00001°
Longitude
-1.4282°
Altitude
722.411 km
Speed
7.512 km/s
True Right ascension
18h 21m 15s
True Declination
0° 00' 00"
Sunlit
Object was in full shadow at epoch
Visualization orbit readout
Latitude
Unknown
Longitude
Unknown
Altitude
Unknown
Speed
Unknown
Apparent Right ascension
Unknown
Apparent Declination
Unknown
Sunlit
N/A
Visualization observer readout
Local Sidereal Time
20:39:17
Azimuth
Unknown
Elevation
Unknown
Doppler factor
Unknown
Orbital elements
Apogee altitude
787.039 km
Perigee altitude
715.135 km
Semi-major axis
7,129.224 km
Eccentricity
0.00504
Inclination
88.98°
RAAN
275.3162°
Arg. of periapsis
14.6315°
True anomaly
345.48903°
Mean anomaly
345.6333°
Eccentric anomaly
345.56126°
Mean motion
3.60562 °/min
Orbital period
99.84 mins
BSTAR
0.00032668
Loading maneuver chart data...
Computing Atmospheric mass density...
Loading historical data...
Loading historical data...
Loading historical data...
Loading historical data...
Loading historical data...
Loading historical data...
Loading historical data...

Documentation

Showing up to 5 results
|